Time,TemperatureF,DewpointF,PressureIn,WindDirection,WindDirectionDegrees,WindSpeedMPH,WindSpeedGustMPH,Humidity,HourlyPrecipIn,Conditions,Clouds,dailyrainin,SoftwareType,DateUTC
2013-10-15 00:00:00,35.8,34.0,30.29,SSE,156,0.0,1.0,93,0.00,,OVC100,0.01,VWS V14.01,2013-10-15 04:00:00,
2013-10-15 00:01:00,35.7,33.6,30.29,SSE,156,1.0,1.0,92,0.00,,OVC100,0.01,VWS V14.01,2013-10-15 04:01:00,
2013-10-15 00:02:00,35.7,33.6,30.29,SSE,156,1.0,1.0,92,0.00,,BKN110,0.01,VWS V14.01,2013-10-15 04:02:00,
2013-10-15 00:07:00,35.5,33.4,30.29,SSE,156,0.0,0.0,92,0.00,,BKN110,0.00,VWS V14.01,2013-10-15 04:07:00,
2013-10-15 00:12:00,35.4,33.6,30.29,SSE,156,1.0,1.0,93,0.00,,BKN110,0.00,VWS V14.01,2013-10-15 04:12:00,
2013-10-15 00:17:00,35.1,33.3,30.28,SSE,156,2.0,2.0,93,0.00,,BKN110,0.00,VWS V14.01,2013-10-15 04:17:00,
2013-10-15 00:22:00,35.0,33.2,30.28,SSE,156,1.0,1.0,93,0.00,,BKN110,0.00,VWS V14.01,2013-10-15 04:22:00,
2013-10-15 00:27:00,34.9,33.1,30.29,SSE,156,0.0,0.0,93,0.00,,BKN110,0.00,VWS V14.01,2013-10-15 04:27:00,
2013-10-15 00:32:00,34.9,33.3,30.29,SE,131,1.0,2.0,94,0.00,,BKN110,0.00,VWS V14.01,2013-10-15 04:32:00,
2013-10-15 00:37:00,34.9,33.3,30.28,SE,146,1.0,1.0,94,0.00,,BKN110,0.00,VWS V14.01,2013-10-15 04:37:00,
2013-10-15 00:42:00,34.7,33.2,30.28,SE,139,2.0,2.0,94,0.00,,BKN110,0.00,VWS V14.01,2013-10-15 04:42:00,
2013-10-15 00:47:00,34.9,33.6,30.28,SE,145,0.0,1.0,95,0.00,,BKN110,0.00,VWS V14.01,2013-10-15 04:47:00,
2013-10-15 00:52:00,35.3,34.0,30.28,SSE,148,0.0,0.0,95,0.00,,BKN110,0.00,VWS V14.01,2013-10-15 04:52:00,
2013-10-15 00:57:00,35.3,34.0,30.28,SSE,148,2.0,2.0,95,0.00,,BKN110,0.00,VWS V14.01,2013-10-15 04:57:00,
2013-10-15 01:02:00,34.8,33.2,30.28,SE,125,1.0,2.0,94,0.00,,FEW100,0.00,VWS V14.01,2013-10-15 05:02:00,
2013-10-15 01:07:00,34.6,33.0,30.28,SE,129,0.0,0.0,94,0.00,,FEW100,0.00,VWS V14.01,2013-10-15 05:07:00,
2013-10-15 01:12:00,34.7,33.2,30.28,SSE,149,0.0,1.0,94,0.00,,FEW100,0.00,VWS V14.01,2013-10-15 05:12:00,
2013-10-15 01:17:00,34.7,33.2,30.27,South,180,2.0,2.0,94,0.00,,FEW100,0.00,VWS V14.01,2013-10-15 05:17:00,
2013-10-15 01:22:00,34.7,33.4,30.27,SE,145,2.0,2.0,95,0.00,,FEW100,0.00,VWS V14.01,2013-10-15 05:22:00,
2013-10-15 01:27:00,34.3,32.8,30.27,ESE,115,1.0,2.0,94,0.00,,FEW100,0.00,VWS V14.01,2013-10-15 05:27:00,
2013-10-15 01:32:00,34.1,32.6,30.27,ESE,115,0.0,0.0,94,0.00,,FEW100,0.00,VWS V14.01,2013-10-15 05:32:00,
2013-10-15 01:37:00,34.1,32.6,30.28,ESE,115,1.0,2.0,94,0.00,,FEW100,0.00,VWS V14.01,2013-10-15 05:37:00,
2013-10-15 01:42:00,34.0,32.5,30.27,ESE,115,0.0,1.0,94,0.00,,FEW100,0.00,VWS V14.01,2013-10-15 05:42:00,
2013-10-15 01:47:00,34.0,32.5,30.27,SE,135,1.0,1.0,94,0.00,,FEW100,0.00,VWS V14.01,2013-10-15 05:47:00,
2013-10-15 01:52:00,33.8,32.3,30.27,SE,135,0.0,1.0,94,0.00,,FEW100,0.00,VWS V14.01,2013-10-15 05:52:00,
2013-10-15 01:57:00,33.4,31.6,30.27,SE,135,0.0,1.0,93,0.00,,FEW100,0.00,VWS V14.01,2013-10-15 05:57:00,
2013-10-15 02:02:00,33.4,31.9,30.26,SE,130,1.0,2.0,94,0.00,,CLR,0.00,VWS V14.01,2013-10-15 06:02:00,
2013-10-15 02:07:00,33.6,32.3,30.26,ESE,119,2.0,2.0,95,0.00,,CLR,0.00,VWS V14.01,2013-10-15 06:07:00,
2013-10-15 02:12:00,33.8,32.5,30.26,ESE,119,1.0,2.0,95,0.00,,CLR,0.00,VWS V14.01,2013-10-15 06:12:00,
2013-10-15 02:18:00,34.1,32.8,30.26,SE,132,1.0,2.0,95,0.00,,CLR,0.00,VWS V14.01,2013-10-15 06:18:00,
2013-10-15 02:23:00,34.6,33.6,30.26,ESE,123,1.0,1.0,96,0.00,,CLR,0.00,VWS V14.01,2013-10-15 06:23:00,
2013-10-15 02:28:00,34.8,33.8,30.25,SE,129,2.0,3.0,96,0.00,,CLR,0.00,VWS V14.01,2013-10-15 06:28:00,
2013-10-15 02:33:00,34.9,33.9,30.25,SSE,156,0.0,1.0,96,0.00,,CLR,0.00,VWS V14.01,2013-10-15 06:33:00,
2013-10-15 02:38:00,35.0,34.0,30.25,South,171,1.0,3.0,96,0.00,,CLR,0.00,VWS V14.01,2013-10-15 06:38:00,
2013-10-15 02:43:00,35.1,34.1,30.25,South,171,1.0,2.0,96,0.00,,CLR,0.00,VWS V14.01,2013-10-15 06:43:00,
2013-10-15 02:48:00,35.1,34.1,30.25,SSE,155,1.0,2.0,96,0.00,,CLR,0.00,VWS V14.01,2013-10-15 06:48:00,
2013-10-15 02:53:00,35.3,34.3,30.25,SSE,160,2.0,2.0,96,0.00,,CLR,0.00,VWS V14.01,2013-10-15 06:53:00,
2013-10-15 02:58:00,35.0,34.0,30.25,SSE,167,1.0,2.0,96,0.00,,CLR,0.00,VWS V14.01,2013-10-15 06:58:00,
2013-10-15 03:03:00,35.4,34.4,30.25,South,169,3.0,3.0,96,0.00,,CLR,0.00,VWS V14.01,2013-10-15 07:03:00,
2013-10-15 03:08:00,35.5,34.5,30.24,SE,135,2.0,3.0,96,0.00,,CLR,0.00,VWS V14.01,2013-10-15 07:08:00,
2013-10-15 03:13:00,35.9,34.9,30.25,SSE,157,2.0,2.0,96,0.00,,CLR,0.00,VWS V14.01,2013-10-15 07:13:00,
2013-10-15 03:18:00,36.0,35.0,30.24,SSE,157,0.0,1.0,96,0.00,,CLR,0.00,VWS V14.01,2013-10-15 07:18:00,
2013-10-15 03:23:00,36.0,35.0,30.25,SSE,160,1.0,1.0,96,0.00,,CLR,0.00,VWS V14.01,2013-10-15 07:23:00,
2013-10-15 03:28:00,36.1,35.1,30.24,SSE,161,1.0,1.0,96,0.00,,CLR,0.00,VWS V14.01,2013-10-15 07:28:00,
2013-10-15 03:33:00,36.1,35.1,30.24,SSE,167,0.0,1.0,96,0.00,,CLR,0.00,VWS V14.01,2013-10-15 07:33:00,
2013-10-15 03:38:00,35.9,34.9,30.24,SE,145,2.0,2.0,96,0.00,,CLR,0.00,VWS V14.01,2013-10-15 07:38:00,
2013-10-15 03:43:00,35.7,34.7,30.24,SE,145,1.0,1.0,96,0.00,,CLR,0.00,VWS V14.01,2013-10-15 07:43:00,
2013-10-15 03:48:00,35.6,34.6,30.23,SE,145,1.0,1.0,96,0.00,,CLR,0.00,VWS V14.01,2013-10-15 07:48:00,
2013-10-15 03:53:00,35.3,34.0,30.23,SE,145,1.0,1.0,95,0.00,,CLR,0.00,VWS V14.01,2013-10-15 07:53:00,
2013-10-15 03:58:00,35.2,33.9,30.23,SE,145,1.0,1.0,95,0.00,,CLR,0.00,VWS V14.01,2013-10-15 07:58:00,
2013-10-15 04:03:00,35.2,33.9,30.22,ESE,123,2.0,2.0,95,0.00,,CLR,0.00,VWS V14.01,2013-10-15 08:03:00,
2013-10-15 04:08:00,36.0,35.0,30.21,SE,131,2.0,3.0,96,0.00,,CLR,0.00,VWS V14.01,2013-10-15 08:08:00,
2013-10-15 04:13:00,37.0,36.2,30.21,ESE,117,4.0,4.0,97,0.00,,CLR,0.00,VWS V14.01,2013-10-15 08:13:00,
2013-10-15 04:18:00,37.9,37.1,30.21,ESE,117,4.0,4.0,97,0.00,,CLR,0.00,VWS V14.01,2013-10-15 08:18:00,
2013-10-15 04:23:00,38.5,37.7,30.21,SE,127,3.0,4.0,97,0.00,,CLR,0.00,VWS V14.01,2013-10-15 08:23:00,
2013-10-15 04:28:00,38.7,37.9,30.22,SE,124,3.0,3.0,97,0.00,,CLR,0.00,VWS V14.01,2013-10-15 08:28:00,
2013-10-15 04:33:00,38.7,37.7,30.21,SE,128,1.0,1.0,96,0.00,,CLR,0.00,VWS V14.01,2013-10-15 08:33:00,
2013-10-15 04:38:00,38.7,37.4,30.20,ESE,122,2.0,2.0,95,0.00,,CLR,0.00,VWS V14.01,2013-10-15 08:38:00,
2013-10-15 04:43:00,38.7,37.4,30.20,SE,125,3.0,3.0,95,0.00,,CLR,0.00,VWS V14.01,2013-10-15 08:43:00,
2013-10-15 04:48:00,38.9,37.3,30.20,SE,125,4.0,5.0,94,0.00,,CLR,0.00,VWS V14.01,2013-10-15 08:48:00,
2013-10-15 04:50:00,39.0,37.4,30.20,ESE,122,3.0,4.0,94,0.00,,CLR,0.00,VWS V14.01,2013-10-15 08:50:00,
2013-10-15 04:55:00,39.1,37.2,30.20,SE,146,1.0,1.0,93,0.00,,CLR,0.00,VWS V14.01,2013-10-15 08:55:00,
2013-10-15 05:00:00,39.2,37.3,30.20,SE,144,1.0,2.0,93,0.00,,CLR,0.00,VWS V14.01,2013-10-15 09:00:00,
2013-10-15 05:05:00,39.0,36.9,30.20,SE,142,0.0,1.0,92,0.00,,FEW028,0.00,VWS V14.01,2013-10-15 09:05:00,
2013-10-15 05:10:00,38.9,36.8,30.20,SE,142,1.0,1.0,92,0.00,,FEW028,0.00,VWS V14.01,2013-10-15 09:10:00,
2013-10-15 05:15:00,38.7,36.6,30.19,SE,133,1.0,1.0,92,0.00,,FEW028,0.00,VWS V14.01,2013-10-15 09:15:00,
2013-10-15 05:20:00,38.6,36.5,30.19,SE,125,3.0,3.0,92,0.00,,FEW028,0.00,VWS V14.01,2013-10-15 09:20:00,
2013-10-15 05:25:00,38.6,36.8,30.19,SE,141,2.0,3.0,93,0.00,,FEW028,0.00,VWS V14.01,2013-10-15 09:25:00,
2013-10-15 05:30:00,38.5,36.7,30.19,SE,132,2.0,2.0,93,0.00,,FEW028,0.00,VWS V14.01,2013-10-15 09:30:00,
2013-10-15 05:35:00,38.5,36.7,30.19,SSE,147,0.0,1.0,93,0.00,,FEW028,0.00,VWS V14.01,2013-10-15 09:35:00,
2013-10-15 05:40:00,38.5,36.7,30.18,SSE,157,1.0,2.0,93,0.00,,FEW028,0.00,VWS V14.01,2013-10-15 09:40:00,
2013-10-15 05:45:00,38.5,36.9,30.18,SE,140,0.0,0.0,94,0.00,,FEW028,0.00,VWS V14.01,2013-10-15 09:45:00,
2013-10-15 05:50:00,38.6,37.0,30.18,SSE,165,0.0,1.0,94,0.00,,FEW028,0.00,VWS V14.01,2013-10-15 09:50:00,
2013-10-15 05:55:00,38.7,37.1,30.18,SSE,165,1.0,1.0,94,0.00,,FEW028,0.00,VWS V14.01,2013-10-15 09:55:00,
2013-10-15 06:00:00,38.8,37.2,30.18,SSE,155,1.0,2.0,94,0.00,,FEW028,0.00,VWS V14.01,2013-10-15 10:00:00,
2013-10-15 06:05:00,38.9,37.3,30.17,SE,130,2.0,2.0,94,0.00,,BKN030,0.00,VWS V14.01,2013-10-15 10:05:00,
2013-10-15 06:10:00,39.0,37.7,30.17,ESE,123,2.0,2.0,95,0.00,,BKN030,0.00,VWS V14.01,2013-10-15 10:10:00,
2013-10-15 06:15:00,39.2,37.9,30.16,ESE,118,3.0,3.0,95,0.00,,BKN030,0.00,VWS V14.01,2013-10-15 10:15:00,
2013-10-15 06:20:00,39.3,38.0,30.16,SE,130,2.0,2.0,95,0.00,,BKN030,0.00,VWS V14.01,2013-10-15 10:20:00,
2013-10-15 06:25:00,39.5,38.2,30.16,SE,142,3.0,4.0,95,0.00,,BKN030,0.00,VWS V14.01,2013-10-15 10:25:00,
2013-10-15 06:30:00,39.7,38.4,30.16,SE,136,2.0,2.0,95,0.00,,BKN030,0.00,VWS V14.01,2013-10-15 10:30:00,
2013-10-15 06:35:00,39.8,38.5,30.16,SSE,168,0.0,1.0,95,0.00,,BKN030,0.00,VWS V14.01,2013-10-15 10:35:00,
2013-10-15 06:40:00,39.8,38.5,30.16,SSE,166,0.0,1.0,95,0.00,,BKN030,0.00,VWS V14.01,2013-10-15 10:40:00,
2013-10-15 06:45:00,39.8,38.5,30.16,SSE,166,0.0,1.0,95,0.00,,BKN030,0.00,VWS V14.01,2013-10-15 10:45:00,
2013-10-15 06:50:00,39.8,38.5,30.16,SSE,150,0.0,1.0,95,0.00,,BKN030,0.00,VWS V14.01,2013-10-15 10:50:00,
2013-10-15 06:55:00,39.9,38.6,30.16,SSE,147,0.0,1.0,95,0.00,,BKN030,0.00,VWS V14.01,2013-10-15 10:55:00,
2013-10-15 07:00:00,39.9,38.6,30.16,SE,129,2.0,3.0,95,0.00,,BKN030,0.00,VWS V14.01,2013-10-15 11:00:00,
2013-10-15 07:05:00,40.0,38.7,30.15,SE,127,2.0,2.0,95,0.00,,OVC100,0.00,VWS V14.01,2013-10-15 11:05:00,
2013-10-15 07:10:00,40.1,38.8,30.15,SE,130,2.0,3.0,95,0.00,,OVC100,0.00,VWS V14.01,2013-10-15 11:10:00,
2013-10-15 07:15:00,40.2,38.9,30.15,SSE,150,1.0,2.0,95,0.00,,OVC100,0.00,VWS V14.01,2013-10-15 11:15:00,
2013-10-15 07:20:00,40.3,39.0,30.14,SE,124,1.0,2.0,95,0.00,,OVC100,0.00,VWS V14.01,2013-10-15 11:20:00,
2013-10-15 07:25:00,40.4,39.1,30.13,SE,127,3.0,4.0,95,0.00,,OVC100,0.00,VWS V14.01,2013-10-15 11:25:00,
2013-10-15 07:31:00,40.6,39.3,30.13,SE,125,2.0,2.0,95,0.00,,OVC100,0.00,VWS V14.01,2013-10-15 11:31:00,
2013-10-15 07:36:00,40.9,39.6,30.14,South,185,3.0,5.0,95,0.00,,OVC100,0.00,VWS V14.01,2013-10-15 11:36:00,
2013-10-15 07:41:00,41.0,39.4,30.14,South,176,1.0,2.0,94,0.00,,OVC100,0.00,VWS V14.01,2013-10-15 11:41:00,
2013-10-15 07:46:00,41.1,39.5,30.14,SSE,154,2.0,2.0,94,0.00,,OVC100,0.00,VWS V14.01,2013-10-15 11:46:00,
2013-10-15 07:51:00,41.1,39.5,30.14,SE,124,2.0,3.0,94,0.00,,OVC100,0.00,VWS V14.01,2013-10-15 11:51:00,
2013-10-15 07:56:00,41.2,39.6,30.14,SE,128,1.0,2.0,94,0.00,,OVC100,0.00,VWS V14.01,2013-10-15 11:56:00,
2013-10-15 08:01:00,41.3,39.7,30.14,SE,140,3.0,3.0,94,0.00,,OVC100,0.00,VWS V14.01,2013-10-15 12:01:00,
2013-10-15 08:06:00,41.3,39.7,30.13,SE,127,3.0,4.0,94,0.00,,OVC110,0.00,VWS V14.01,2013-10-15 12:06:00,
2013-10-15 08:11:00,41.5,39.9,30.13,SE,138,2.0,2.0,94,0.00,,OVC110,0.00,VWS V14.01,2013-10-15 12:11:00,
2013-10-15 08:16:00,41.6,40.0,30.13,SE,133,3.0,3.0,94,0.00,,OVC110,0.00,VWS V14.01,2013-10-15 12:16:00,
2013-10-15 08:21:00,41.7,40.1,30.13,SE,137,3.0,3.0,94,0.00,,OVC110,0.00,VWS V14.01,2013-10-15 12:21:00,
2013-10-15 08:26:00,41.8,40.2,30.13,SE,129,3.0,4.0,94,0.00,,OVC110,0.00,VWS V14.01,2013-10-15 12:26:00,
2013-10-15 08:31:00,42.0,40.4,30.13,SE,130,2.0,3.0,94,0.00,,OVC110,0.00,VWS V14.01,2013-10-15 12:31:00,
2013-10-15 08:36:00,42.0,40.4,30.13,SE,142,2.0,2.0,94,0.00,,OVC110,0.00,VWS V14.01,2013-10-15 12:36:00,
2013-10-15 08:41:00,42.0,40.1,30.13,SE,145,0.0,1.0,93,0.00,,OVC110,0.00,VWS V14.01,2013-10-15 12:41:00,
2013-10-15 08:46:00,42.0,40.1,30.13,South,179,1.0,1.0,93,0.00,,OVC110,0.00,VWS V14.01,2013-10-15 12:46:00,
2013-10-15 08:51:00,41.9,40.0,30.13,SSW,204,1.0,2.0,93,0.00,,OVC110,0.00,VWS V14.01,2013-10-15 12:51:00,
2013-10-15 08:56:00,41.8,39.9,30.13,SE,140,2.0,4.0,93,0.00,,OVC110,0.00,VWS V14.01,2013-10-15 12:56:00,
2013-10-15 09:01:00,41.8,40.2,30.13,SE,136,2.0,3.0,94,0.00,,OVC110,0.00,VWS V14.01,2013-10-15 13:01:00,
2013-10-15 09:06:00,41.9,40.3,30.13,SE,130,3.0,3.0,94,0.00,,OVC100,0.00,VWS V14.01,2013-10-15 13:06:00,
2013-10-15 09:11:00,42.1,40.5,30.13,SE,130,2.0,2.0,94,0.00,,OVC100,0.00,VWS V14.01,2013-10-15 13:11:00,
2013-10-15 09:16:00,42.3,41.0,30.12,SE,130,2.0,3.0,95,0.00,,OVC100,0.00,VWS V14.01,2013-10-15 13:16:00,
2013-10-15 09:21:00,42.9,41.6,30.12,ESE,120,2.0,3.0,95,0.00,,OVC100,0.00,VWS V14.01,2013-10-15 13:21:00,
2013-10-15 09:26:00,43.4,42.1,30.12,ESE,123,2.0,2.0,95,0.00,,OVC100,0.00,VWS V14.01,2013-10-15 13:26:00,
2013-10-15 09:31:00,44.0,42.7,30.12,SE,130,2.0,2.0,95,0.00,,OVC100,0.00,VWS V14.01,2013-10-15 13:31:00,
2013-10-15 09:36:00,44.7,43.1,30.12,SE,136,3.0,4.0,94,0.00,,OVC100,0.00,VWS V14.01,2013-10-15 13:36:00,
2013-10-15 09:41:00,45.1,43.2,30.12,SSE,163,2.0,2.0,93,0.00,,OVC100,0.00,VWS V14.01,2013-10-15 13:41:00,
2013-10-15 09:46:00,45.4,43.5,30.12,SE,134,2.0,3.0,93,0.00,,OVC100,0.00,VWS V14.01,2013-10-15 13:46:00,
2013-10-15 09:51:00,45.7,43.5,30.12,SSE,150,0.0,1.0,92,0.00,,OVC100,0.00,VWS V14.01,2013-10-15 13:51:00,
2013-10-15 09:56:00,45.9,44.0,30.12,SSE,167,1.0,2.0,93,0.00,,OVC100,0.00,VWS V14.01,2013-10-15 13:56:00,
2013-10-15 10:01:00,46.1,43.9,30.12,SE,131,1.0,3.0,92,0.00,,-RA,0.00,VWS V14.01,2013-10-15 14:01:00,
2013-10-15 10:06:00,46.4,44.2,30.12,ESE,107,3.0,4.0,92,0.00,,-RA,0.00,VWS V14.01,2013-10-15 14:06:00,
2013-10-15 10:11:00,46.7,44.5,30.11,SE,139,3.0,5.0,92,0.00,,-RA,0.00,VWS V14.01,2013-10-15 14:11:00,
2013-10-15 10:17:00,47.0,44.8,30.11,ESE,106,3.0,3.0,92,0.00,,-RA,0.00,VWS V14.01,2013-10-15 14:17:00,
2013-10-15 10:22:00,47.3,44.8,30.10,ESE,104,6.0,6.0,91,0.00,,-RA,0.00,VWS V14.01,2013-10-15 14:22:00,
2013-10-15 10:27:00,47.4,44.6,30.09,ESE,111,7.0,7.0,90,0.00,,-RA,0.00,VWS V14.01,2013-10-15 14:27:00,
2013-10-15 10:32:00,47.4,44.6,30.09,ESE,110,4.0,5.0,90,0.00,,-RA,0.00,VWS V14.01,2013-10-15 14:32:00,
2013-10-15 10:37:00,47.4,44.6,30.08,SE,125,4.0,6.0,90,0.00,,-RA,0.00,VWS V14.01,2013-10-15 14:37:00,
2013-10-15 10:42:00,47.5,44.7,30.08,SE,134,3.0,4.0,90,0.00,,-RA,0.00,VWS V14.01,2013-10-15 14:42:00,
2013-10-15 10:47:00,47.7,45.2,30.08,SE,125,4.0,7.0,91,0.00,,-RA,0.00,VWS V14.01,2013-10-15 14:47:00,
2013-10-15 10:52:00,48.0,45.2,30.08,SE,126,4.0,4.0,90,0.00,,-RA,0.00,VWS V14.01,2013-10-15 14:52:00,
2013-10-15 10:57:00,48.1,45.3,30.07,ESE,107,4.0,4.0,90,0.00,,-RA,0.00,VWS V14.01,2013-10-15 14:57:00,
2013-10-15 11:02:00,48.3,45.5,30.07,ESE,118,3.0,4.0,90,0.00,,-RA,0.00,VWS V14.01,2013-10-15 15:02:00,
2013-10-15 11:07:00,48.3,45.5,30.08,ESE,119,2.0,3.0,90,0.00,,-RA,0.00,VWS V14.01,2013-10-15 15:07:00,
2013-10-15 11:12:00,48.5,45.7,30.08,SE,128,2.0,2.0,90,0.00,,-RA,0.00,VWS V14.01,2013-10-15 15:12:00,
2013-10-15 11:17:00,48.6,45.8,30.07,ESE,109,4.0,6.0,90,0.00,,-RA,0.00,VWS V14.01,2013-10-15 15:17:00,
2013-10-15 11:22:00,48.8,46.0,30.06,ESE,115,2.0,2.0,90,0.00,,-RA,0.00,VWS V14.01,2013-10-15 15:22:00,
2013-10-15 11:27:00,48.9,46.1,30.05,SE,140,4.0,7.0,90,0.00,,-RA,0.00,VWS V14.01,2013-10-15 15:27:00,
2013-10-15 11:32:00,49.0,45.9,30.05,SE,125,5.0,6.0,89,0.00,,-RA,0.00,VWS V14.01,2013-10-15 15:32:00,
2013-10-15 11:37:00,49.1,46.3,30.05,ESE,118,4.0,4.0,90,0.00,,-RA,0.00,VWS V14.01,2013-10-15 15:37:00,
2013-10-15 11:42:00,49.3,46.5,30.04,ESE,115,4.0,5.0,90,0.00,,-RA,0.00,VWS V14.01,2013-10-15 15:42:00,
2013-10-15 11:47:00,49.6,46.5,30.03,ESE,115,6.0,7.0,89,0.00,,-RA,0.00,VWS V14.01,2013-10-15 15:47:00,
2013-10-15 11:52:00,50.1,47.0,30.03,ESE,123,4.0,7.0,89,0.00,,-RA,0.00,VWS V14.01,2013-10-15 15:52:00,
2013-10-15 11:57:00,50.4,47.0,30.02,ESE,122,5.0,5.0,88,0.00,,-RA,0.00,VWS V14.01,2013-10-15 15:57:00,
2013-10-15 12:02:00,51.2,47.8,30.01,SE,132,5.0,7.0,88,0.00,,-RA,0.00,VWS V14.01,2013-10-15 16:02:00,
2013-10-15 12:07:00,51.9,48.2,30.01,SE,136,9.0,10.0,87,0.00,,-RA,0.00,VWS V14.01,2013-10-15 16:07:00,
2013-10-15 12:13:00,52.3,47.9,30.01,SE,129,3.0,4.0,85,0.00,,-RA,0.00,VWS V14.01,2013-10-15 16:13:00,
2013-10-15 12:18:00,52.4,47.7,30.01,SE,131,3.0,4.0,84,0.00,,-RA,0.00,VWS V14.01,2013-10-15 16:18:00,
2013-10-15 12:23:00,52.6,48.2,30.01,SE,128,3.0,4.0,85,0.00,,-RA,0.00,VWS V14.01,2013-10-15 16:23:00,
2013-10-15 12:28:00,53.0,48.0,30.00,SE,132,8.0,8.0,83,0.00,,-RA,0.00,VWS V14.01,2013-10-15 16:28:00,
2013-10-15 12:33:00,53.7,49.0,30.01,SE,144,2.0,2.0,84,0.00,,-RA,0.00,VWS V14.01,2013-10-15 16:33:00,
2013-10-15 12:38:00,54.2,48.2,30.00,SE,124,5.0,9.0,80,0.00,,-RA,0.00,VWS V14.01,2013-10-15 16:38:00,
2013-10-15 12:43:00,54.4,48.7,29.99,ESE,116,12.0,13.0,81,0.00,,-RA,0.00,VWS V14.01,2013-10-15 16:43:00,
2013-10-15 12:48:00,54.4,48.0,29.99,SE,130,5.0,7.0,79,0.00,,-RA,0.00,VWS V14.01,2013-10-15 16:48:00,
2013-10-15 12:53:00,54.5,48.1,29.98,ESE,122,11.0,11.0,79,0.00,,-RA,0.00,VWS V14.01,2013-10-15 16:53:00,
2013-10-15 12:58:00,54.5,48.1,29.97,ESE,118,9.0,12.0,79,0.00,,-RA,0.00,VWS V14.01,2013-10-15 16:58:00,
2013-10-15 13:03:00,54.3,47.9,29.97,ESE,123,8.0,12.0,79,0.00,,-RA,0.00,VWS V14.01,2013-10-15 17:03:00,
2013-10-15 13:08:00,54.2,47.8,29.97,SE,129,9.0,9.0,79,0.00,,-RA,0.00,VWS V14.01,2013-10-15 17:08:00,
2013-10-15 13:13:00,54.4,48.0,29.96,ESE,111,10.0,10.0,79,0.00,,-RA,0.00,VWS V14.01,2013-10-15 17:13:00,
2013-10-15 13:18:00,54.9,47.8,29.95,ESE,107,8.0,8.0,77,0.00,,-RA,0.00,VWS V14.01,2013-10-15 17:18:00,
2013-10-15 13:23:00,55.3,47.9,29.95,SE,134,7.0,11.0,76,0.00,,-RA,0.00,VWS V14.01,2013-10-15 17:23:00,
2013-10-15 13:28:00,55.7,47.9,29.95,SE,140,8.0,8.0,75,0.00,,-RA,0.00,VWS V14.01,2013-10-15 17:28:00,
2013-10-15 13:33:00,55.9,47.4,29.96,SSE,152,8.0,9.0,73,0.00,,-RA,0.00,VWS V14.01,2013-10-15 17:33:00,
2013-10-15 13:38:00,55.9,47.0,29.96,SSE,152,6.0,8.0,72,0.00,,-RA,0.00,VWS V14.01,2013-10-15 17:38:00,
2013-10-15 13:43:00,55.9,47.4,29.95,ENE,77,2.0,3.0,73,0.00,,-RA,0.00,VWS V14.01,2013-10-15 17:43:00,
2013-10-15 13:48:00,56.1,47.2,29.95,SE,142,5.0,8.0,72,0.00,,-RA,0.00,VWS V14.01,2013-10-15 17:48:00,
2013-10-15 13:53:00,56.3,47.0,29.95,SSE,151,2.0,4.0,71,0.00,,-RA,0.00,VWS V14.01,2013-10-15 17:53:00,
2013-10-15 13:58:00,56.4,47.1,29.94,SSE,147,5.0,8.0,71,0.00,,-RA,0.00,VWS V14.01,2013-10-15 17:58:00,
2013-10-15 14:03:00,56.7,47.0,29.93,SE,137,5.0,9.0,70,0.00,,-RA,0.00,VWS V14.01,2013-10-15 18:03:00,
2013-10-15 14:08:00,56.7,47.0,29.93,SE,138,10.0,11.0,70,0.00,,-RA,0.00,VWS V14.01,2013-10-15 18:08:00,
2013-10-15 14:13:00,56.8,47.5,29.93,SSE,151,6.0,7.0,71,0.00,,-RA,0.00,VWS V14.01,2013-10-15 18:13:00,
2013-10-15 14:18:00,56.7,47.0,29.94,SE,134,3.0,3.0,70,0.00,,-RA,0.00,VWS V14.01,2013-10-15 18:18:00,
2013-10-15 14:23:00,56.6,47.3,29.93,SSW,202,5.0,5.0,71,0.00,,-RA,0.00,VWS V14.01,2013-10-15 18:23:00,
2013-10-15 14:28:00,56.5,47.2,29.93,South,186,2.0,4.0,71,0.00,,-RA,0.00,VWS V14.01,2013-10-15 18:28:00,
2013-10-15 14:33:00,56.4,47.1,29.94,SE,146,4.0,5.0,71,0.00,,-RA,0.00,VWS V14.01,2013-10-15 18:33:00,
2013-10-15 14:38:00,56.4,47.5,29.94,SW,217,2.0,3.0,72,0.00,,-RA,0.00,VWS V14.01,2013-10-15 18:38:00,
2013-10-15 14:43:00,56.4,47.5,29.93,SW,227,2.0,4.0,72,0.00,,-RA,0.00,VWS V14.01,2013-10-15 18:43:00,
2013-10-15 14:48:00,56.4,47.5,29.93,South,182,5.0,5.0,72,0.00,,-RA,0.00,VWS V14.01,2013-10-15 18:48:00,
2013-10-15 14:53:00,56.3,47.4,29.93,SW,227,1.0,2.0,72,0.00,,-RA,0.00,VWS V14.01,2013-10-15 18:53:00,
2013-10-15 14:58:00,56.4,47.5,29.92,SE,125,4.0,4.0,72,0.00,,-RA,0.00,VWS V14.01,2013-10-15 18:58:00,
2013-10-15 15:03:00,56.4,47.5,29.92,SE,138,5.0,7.0,72,0.00,,-RA,0.00,VWS V14.01,2013-10-15 19:03:00,
2013-10-15 15:08:00,56.4,47.5,29.92,SE,125,4.0,6.0,72,0.00,,-RA,0.00,VWS V14.01,2013-10-15 19:08:00,
2013-10-15 15:13:00,56.4,47.9,29.92,ESE,105,4.0,6.0,73,0.00,,-RA,0.00,VWS V14.01,2013-10-15 19:13:00,
2013-10-15 15:18:00,56.4,47.9,29.91,SE,138,3.0,5.0,73,0.00,,-RA,0.00,VWS V14.01,2013-10-15 19:18:00,
2013-10-15 15:23:00,56.4,47.9,29.91,ESE,115,6.0,7.0,73,0.00,,-RA,0.00,VWS V14.01,2013-10-15 19:23:00,
2013-10-15 15:28:00,56.4,47.9,29.91,ESE,120,6.0,10.0,73,0.00,,-RA,0.00,VWS V14.01,2013-10-15 19:28:00,
2013-10-15 15:33:00,56.4,47.9,29.91,ESE,114,7.0,8.0,73,0.00,,-RA,0.00,VWS V14.01,2013-10-15 19:33:00,
2013-10-15 15:38:00,56.3,47.8,29.90,SE,125,3.0,3.0,73,0.00,,-RA,0.00,VWS V14.01,2013-10-15 19:38:00,
2013-10-15 15:43:00,56.3,47.8,29.90,ESE,113,4.0,8.0,73,0.00,,-RA,0.00,VWS V14.01,2013-10-15 19:43:00,
2013-10-15 15:48:00,56.3,48.1,29.90,ESE,113,7.0,7.0,74,0.00,,-RA,0.00,VWS V14.01,2013-10-15 19:48:00,
2013-10-15 15:53:00,56.3,48.1,29.89,SE,130,3.0,4.0,74,0.00,,-RA,0.00,VWS V14.01,2013-10-15 19:53:00,
2013-10-15 15:58:00,56.4,48.2,29.89,SE,128,3.0,5.0,74,0.00,,-RA,0.00,VWS V14.01,2013-10-15 19:58:00,
2013-10-15 16:03:00,56.4,48.6,29.89,ESE,117,4.0,4.0,75,0.00,,-RA,0.00,VWS V14.01,2013-10-15 20:03:00,
2013-10-15 16:08:00,56.4,48.2,29.89,SE,146,2.0,3.0,74,0.00,,-RA,0.00,VWS V14.01,2013-10-15 20:08:00,
2013-10-15 16:14:00,56.5,48.3,29.89,ESE,107,3.0,4.0,74,0.00,,-RA,0.00,VWS V14.01,2013-10-15 20:14:00,
2013-10-15 16:19:00,56.5,48.3,29.89,ESE,122,3.0,4.0,74,0.00,,-RA,0.00,VWS V14.01,2013-10-15 20:19:00,
2013-10-15 16:24:00,56.5,48.3,29.88,ESE,121,5.0,7.0,74,0.00,,-RA,0.00,VWS V14.01,2013-10-15 20:24:00,
2013-10-15 16:29:00,56.5,48.7,29.87,ESE,116,6.0,9.0,75,0.00,,-RA,0.00,VWS V14.01,2013-10-15 20:29:00,
2013-10-15 16:34:00,56.4,48.6,29.87,ESE,107,4.0,7.0,75,0.00,,-RA,0.00,VWS V14.01,2013-10-15 20:34:00,
2013-10-15 16:39:00,56.2,48.8,29.86,East,91,3.0,5.0,76,0.00,,-RA,0.00,VWS V14.01,2013-10-15 20:39:00,
2013-10-15 16:44:00,56.0,49.2,29.86,SE,126,7.0,10.0,78,0.00,,-RA,0.00,VWS V14.01,2013-10-15 20:44:00,
2013-10-15 16:49:00,55.8,49.0,29.86,ESE,117,8.0,8.0,78,0.00,,-RA,0.00,VWS V14.01,2013-10-15 20:49:00,
2013-10-15 16:54:00,55.6,49.5,29.86,SE,130,5.0,7.0,80,0.00,,-RA,0.00,VWS V14.01,2013-10-15 20:54:00,
2013-10-15 16:59:00,55.3,49.6,29.86,ESE,117,4.0,5.0,81,0.01,,-RA,0.01,VWS V14.01,2013-10-15 20:59:00,
2013-10-15 17:04:00,54.9,50.2,29.85,ESE,113,4.0,4.0,84,0.02,,RA,0.02,VWS V14.01,2013-10-15 21:04:00,
2013-10-15 17:09:00,54.3,50.2,29.84,ESE,109,6.0,6.0,86,0.03,,RA,0.03,VWS V14.01,2013-10-15 21:09:00,
2013-10-15 17:14:00,53.7,49.9,29.83,ESE,106,8.0,8.0,87,0.04,,RA,0.04,VWS V14.01,2013-10-15 21:14:00,
2013-10-15 17:19:00,53.5,50.0,29.83,ESE,105,7.0,9.0,88,0.04,,RA,0.04,VWS V14.01,2013-10-15 21:19:00,
2013-10-15 17:24:00,53.3,50.2,29.83,ESE,105,8.0,9.0,89,0.05,,RA,0.05,VWS V14.01,2013-10-15 21:24:00,
2013-10-15 17:29:00,53.3,50.2,29.82,ESE,107,8.0,9.0,89,0.05,,RA,0.05,VWS V14.01,2013-10-15 21:29:00,
2013-10-15 17:34:00,53.4,50.2,29.82,ESE,111,3.0,7.0,89,0.06,,RA,0.06,VWS V14.01,2013-10-15 21:34:00,
2013-10-15 17:39:00,53.3,50.2,29.82,ESE,117,7.0,7.0,89,0.06,,RA,0.06,VWS V14.01,2013-10-15 21:39:00,
2013-10-15 17:44:00,53.3,50.5,29.82,ESE,107,7.0,10.0,90,0.06,,RA,0.06,VWS V14.01,2013-10-15 21:44:00,
2013-10-15 17:49:00,53.3,50.5,29.81,ESE,109,8.0,9.0,90,0.06,,RA,0.06,VWS V14.01,2013-10-15 21:49:00,
2013-10-15 17:54:00,53.2,50.3,29.81,SE,140,7.0,7.0,90,0.06,,RA,0.06,VWS V14.01,2013-10-15 21:54:00,
2013-10-15 17:59:00,53.3,50.5,29.81,ESE,119,7.0,7.0,90,0.06,,RA,0.06,VWS V14.01,2013-10-15 21:59:00,
2013-10-15 18:04:00,53.3,50.5,29.81,ESE,110,7.0,8.0,90,0.04,,RA,0.06,VWS V14.01,2013-10-15 22:04:00,
2013-10-15 18:09:00,53.3,50.5,29.81,ESE,107,6.0,7.0,90,0.04,,RA,0.06,VWS V14.01,2013-10-15 22:09:00,
2013-10-15 18:14:00,53.3,50.5,29.81,East,86,8.0,9.0,90,0.05,,RA,0.07,VWS V14.01,2013-10-15 22:14:00,
2013-10-15 18:19:00,53.3,50.7,29.80,ESE,105,10.0,11.0,91,0.05,,RA,0.07,VWS V14.01,2013-10-15 22:19:00,
2013-10-15 18:25:00,53.3,50.7,29.80,ESE,107,11.0,11.0,91,0.05,,RA,0.07,VWS V14.01,2013-10-15 22:25:00,
2013-10-15 18:30:00,53.4,50.5,29.81,East,96,4.0,7.0,90,0.05,,RA,0.07,VWS V14.01,2013-10-15 22:30:00,
2013-10-15 18:35:00,53.4,50.5,29.81,East,93,4.0,6.0,90,0.02,,RA,0.07,VWS V14.01,2013-10-15 22:35:00,
2013-10-15 18:40:00,53.4,50.5,29.81,ESE,109,7.0,7.0,90,0.02,,RA,0.07,VWS V14.01,2013-10-15 22:40:00,
2013-10-15 18:45:00,53.4,50.8,29.81,SE,145,1.0,4.0,91,0.03,,RA,0.08,VWS V14.01,2013-10-15 22:45:00,
2013-10-15 18:50:00,53.3,50.7,29.81,ESE,119,7.0,7.0,91,0.04,,RA,0.09,VWS V14.01,2013-10-15 22:50:00,
2013-10-15 18:55:00,53.2,50.9,29.81,East,100,8.0,8.0,92,0.05,,RA,0.10,VWS V14.01,2013-10-15 22:55:00,
2013-10-15 19:00:00,53.0,50.7,29.81,ESE,110,8.0,8.0,92,0.06,,RA,0.11,VWS V14.01,2013-10-15 23:00:00,
2013-10-15 19:05:00,53.0,50.7,29.81,SE,125,1.0,2.0,92,0.05,,-RA,0.11,VWS V14.01,2013-10-15 23:05:00,
2013-10-15 19:10:00,53.0,51.0,29.80,ESE,107,3.0,4.0,93,0.06,,-RA,0.12,VWS V14.01,2013-10-15 23:10:00,
2013-10-15 19:15:00,52.9,50.9,29.79,ESE,107,7.0,8.0,93,0.07,,-RA,0.13,VWS V14.01,2013-10-15 23:15:00,
2013-10-15 19:20:00,52.9,50.9,29.79,ESE,110,9.0,9.0,93,0.08,,-RA,0.14,VWS V14.01,2013-10-15 23:20:00,
2013-10-15 19:25:00,52.9,50.9,29.79,ESE,107,9.0,9.0,93,0.09,,-RA,0.15,VWS V14.01,2013-10-15 23:25:00,
2013-10-15 19:30:00,53.0,51.0,29.79,ESE,108,9.0,11.0,93,0.10,,-RA,0.16,VWS V14.01,2013-10-15 23:30:00,
2013-10-15 19:35:00,52.9,51.2,29.79,ESE,110,9.0,9.0,94,0.10,,-RA,0.17,VWS V14.01,2013-10-15 23:35:00,
2013-10-15 19:41:00,53.0,51.3,29.79,East,92,10.0,10.0,94,0.11,,-RA,0.18,VWS V14.01,2013-10-15 23:41:00,
2013-10-15 19:46:00,53.0,51.3,29.79,ESE,111,7.0,7.0,94,0.11,,-RA,0.18,VWS V14.01,2013-10-15 23:46:00,
2013-10-15 19:51:00,52.9,51.2,29.78,East,97,9.0,10.0,94,0.12,,-RA,0.19,VWS V14.01,2013-10-15 23:51:00,
2013-10-15 19:56:00,52.8,51.1,29.78,ESE,114,10.0,13.0,94,0.13,,-RA,0.20,VWS V14.01,2013-10-15 23:56:00,
2013-10-15 20:01:00,52.8,51.1,29.78,ESE,105,12.0,13.0,94,0.13,,-RA,0.20,VWS V14.01,2013-10-16 00:01:00,
2013-10-15 20:06:00,52.7,51.0,29.77,ESE,115,8.0,9.0,94,0.10,,,0.21,VWS V14.01,2013-10-16 00:06:00,
2013-10-15 20:11:00,52.7,51.0,29.77,East,101,11.0,13.0,94,0.12,,,0.23,VWS V14.01,2013-10-16 00:11:00,
2013-10-15 20:16:00,52.7,51.0,29.77,ESE,115,8.0,9.0,94,0.13,,,0.24,VWS V14.01,2013-10-16 00:16:00,
2013-10-15 20:21:00,52.6,50.9,29.77,SE,140,5.0,5.0,94,0.15,,,0.26,VWS V14.01,2013-10-16 00:21:00,
2013-10-15 20:26:00,52.6,51.2,29.77,East,98,10.0,10.0,95,0.16,,,0.27,VWS V14.01,2013-10-16 00:26:00,
2013-10-15 20:31:00,52.6,51.2,29.77,SE,142,7.0,13.0,95,0.16,,,0.27,VWS V14.01,2013-10-16 00:31:00,
2013-10-15 20:36:00,52.6,51.2,29.77,ESE,118,7.0,10.0,95,0.10,,,0.27,VWS V14.01,2013-10-16 00:36:00,
2013-10-15 20:41:00,52.6,51.2,29.77,ESE,109,8.0,10.0,95,0.10,,,0.27,VWS V14.01,2013-10-16 00:41:00,
2013-10-15 20:46:00,52.7,51.3,29.77,ESE,109,10.0,13.0,95,0.11,,,0.28,VWS V14.01,2013-10-16 00:46:00,
2013-10-15 20:51:00,52.8,51.4,29.76,SE,128,12.0,12.0,95,0.11,,,0.28,VWS V14.01,2013-10-16 00:51:00,
2013-10-15 20:56:00,52.9,51.5,29.76,SE,124,13.0,15.0,95,0.11,,,0.28,VWS V14.01,2013-10-16 00:56:00,
2013-10-15 21:01:00,53.1,51.7,29.76,SE,130,8.0,10.0,95,0.11,,,0.28,VWS V14.01,2013-10-16 01:01:00,
2013-10-15 21:06:00,53.1,51.7,29.76,SE,128,8.0,8.0,95,0.07,,-RA,0.28,VWS V14.01,2013-10-16 01:06:00,
2013-10-15 21:11:00,53.1,51.7,29.75,SE,142,8.0,11.0,95,0.07,,-RA,0.28,VWS V14.01,2013-10-16 01:11:00,
2013-10-15 21:16:00,53.2,51.8,29.75,SE,130,10.0,10.0,95,0.07,,-RA,0.28,VWS V14.01,2013-10-16 01:16:00,
2013-10-15 21:21:00,53.2,51.8,29.75,ESE,117,8.0,11.0,95,0.07,,-RA,0.28,VWS V14.01,2013-10-16 01:21:00,
2013-10-15 21:26:00,53.3,51.9,29.75,SE,140,7.0,11.0,95,0.07,,-RA,0.28,VWS V14.01,2013-10-16 01:26:00,
2013-10-15 21:31:00,53.3,51.9,29.75,SE,131,8.0,11.0,95,0.07,,-RA,0.28,VWS V14.01,2013-10-16 01:31:00,
2013-10-15 21:36:00,53.3,51.9,29.74,East,91,5.0,11.0,95,0.02,,-RA,0.29,VWS V14.01,2013-10-16 01:36:00,
2013-10-15 21:41:00,53.4,52.0,29.74,SE,129,12.0,13.0,95,0.02,,-RA,0.29,VWS V14.01,2013-10-16 01:41:00,
2013-10-15 21:46:00,53.5,52.1,29.74,SE,135,1.0,6.0,95,0.02,,-RA,0.29,VWS V14.01,2013-10-16 01:46:00,
2013-10-15 21:51:00,53.6,52.2,29.74,ESE,117,9.0,11.0,95,0.02,,-RA,0.29,VWS V14.01,2013-10-16 01:51:00,
2013-10-15 21:56:00,53.6,52.2,29.74,East,94,7.0,8.0,95,0.02,,-RA,0.29,VWS V14.01,2013-10-16 01:56:00,
2013-10-15 22:01:00,53.6,52.2,29.74,ESE,119,7.0,7.0,95,0.02,,-RA,0.29,VWS V14.01,2013-10-16 02:01:00,
2013-10-15 22:06:00,53.6,52.2,29.73,SE,134,7.0,7.0,95,0.01,,-RA,0.29,VWS V14.01,2013-10-16 02:06:00,
2013-10-15 22:11:00,53.6,52.5,29.73,East,101,4.0,5.0,96,0.01,,-RA,0.29,VWS V14.01,2013-10-16 02:11:00,
2013-10-15 22:16:00,53.7,52.6,29.73,SSE,148,6.0,8.0,96,0.01,,-RA,0.29,VWS V14.01,2013-10-16 02:16:00,
2013-10-15 22:21:00,53.7,52.6,29.73,ESE,116,3.0,4.0,96,0.01,,-RA,0.29,VWS V14.01,2013-10-16 02:21:00,
2013-10-15 22:26:00,53.8,52.7,29.73,SE,134,3.0,3.0,96,0.01,,-RA,0.29,VWS V14.01,2013-10-16 02:26:00,
2013-10-15 22:31:00,53.8,52.7,29.73,ESE,107,4.0,5.0,96,0.01,,-RA,0.29,VWS V14.01,2013-10-16 02:31:00,
2013-10-15 22:36:00,53.9,52.8,29.72,SE,133,4.0,5.0,96,0.00,,-RA,0.29,VWS V14.01,2013-10-16 02:36:00,
2013-10-15 22:41:00,53.9,52.8,29.72,SE,136,4.0,5.0,96,0.00,,-RA,0.29,VWS V14.01,2013-10-16 02:41:00,
2013-10-15 22:46:00,54.0,52.9,29.72,SE,125,5.0,7.0,96,0.00,,-RA,0.29,VWS V14.01,2013-10-16 02:46:00,
2013-10-15 22:51:00,54.0,52.9,29.72,SE,133,7.0,7.0,96,0.00,,-RA,0.29,VWS V14.01,2013-10-16 02:51:00,
2013-10-15 22:56:00,54.1,53.0,29.72,ESE,121,4.0,4.0,96,0.00,,-RA,0.29,VWS V14.01,2013-10-16 02:56:00,
2013-10-15 23:01:00,54.1,53.0,29.71,SE,126,1.0,1.0,96,0.00,,-RA,0.29,VWS V14.01,2013-10-16 03:01:00,
2013-10-15 23:06:00,54.1,53.0,29.72,SE,136,3.0,5.0,96,0.00,,-RA,0.29,VWS V14.01,2013-10-16 03:06:00,
2013-10-15 23:11:00,54.1,53.0,29.71,ESE,117,3.0,5.0,96,0.00,,-RA,0.29,VWS V14.01,2013-10-16 03:11:00,
2013-10-15 23:16:00,54.2,53.1,29.71,SSE,155,1.0,2.0,96,0.00,,-RA,0.29,VWS V14.01,2013-10-16 03:16:00,
2013-10-15 23:22:00,54.2,53.1,29.71,SE,130,3.0,3.0,96,0.00,,-RA,0.29,VWS V14.01,2013-10-16 03:22:00,
2013-10-15 23:27:00,54.2,53.1,29.71,SE,128,2.0,3.0,96,0.00,,-RA,0.29,VWS V14.01,2013-10-16 03:27:00,
2013-10-15 23:32:00,54.3,53.2,29.70,SE,136,1.0,2.0,96,0.00,,-RA,0.29,VWS V14.01,2013-10-16 03:32:00,
2013-10-15 23:37:00,54.4,53.3,29.70,South,178,3.0,5.0,96,0.00,,-RA,0.29,VWS V14.01,2013-10-16 03:37:00,
2013-10-15 23:42:00,54.5,53.4,29.70,ESE,123,4.0,4.0,96,0.00,,-RA,0.29,VWS V14.01,2013-10-16 03:42:00,
2013-10-15 23:47:00,54.6,53.5,29.70,SE,134,3.0,3.0,96,0.00,,-RA,0.29,VWS V14.01,2013-10-16 03:47:00,
2013-10-15 23:52:00,54.7,53.6,29.70,SE,132,2.0,3.0,96,0.00,,-RA,0.29,VWS V14.01,2013-10-16 03:52:00,
2013-10-15 23:57:00,54.8,53.7,29.69,SE,144,1.0,1.0,96,0.00,,-RA,0.29,VWS V14.01,2013-10-16 03:57:00,